ARIANE 1 DEB

基本信息
目录编号:
39106
目录名称:
ARIANE 1 DEB
国际标识:
1986-019VU
轨道中心:
EARTH
物体状态:
在轨
发射日期:
1986-02-22 UTC
轨道信息
数据来源: 国际轨道数据
星历时间: 2026-09-12T15:27:54+0800
半长轴: 7203.612km
偏心率: 0.0064447
轨道倾角: 98.388°
近地点辐角: 153.747°
升交点赤经: 265.630°
平近点角: 206.700°
近地点: 779.049km
远地点: 871.901km
周期: 101.411分钟
每日圈数: 14.19964
详细信息
发射场:
FRGUI
轨道高度:
LEO
数据来源:
AOE Integration Group
参考系:
TEME
时间系统:
UTC
历元类型:
SGP4
2D轨道图
3D轨道图
轨道高度分析图
轨道倾角分析图
轨道综合分析图
查看轨道综合分析图